When you browse on this site, cookies collect data to enhance your experience and personalize the content and advertising you see.
Visit our Privacy Policy to learn more. By continuing to use the site, you agree to this use of cookies and data.
  • In Romania
  • List of Countries
  • For 7 days
  • Water Temperature
  • Satellite Maps
  • Weather Map
  • Weather Widgets
  • user-avatar
    Login

    Hourly Weather Sedan

    Today, 20 June, Thursday

    Time Temperature Precipitation Wind Pressure Humidity
    00:00 +14°C° 0 mm 2 mps 735 mmHg 97%
    01:00 +14°C° 0 mm 1 mps 735 mmHg 97%
    02:00 +13°C° 0 mm 1 mps 735 mmHg 96%
    03:00 +12°C° 0 mm 1 mps 735 mmHg 96%
    04:00 +13°C° 0 mm 1 mps 735 mmHg 95%
    05:00 +14°C° 0 mm 1 mps 735 mmHg 94%
    06:00 +15°C° 0 mm 1 mps 735 mmHg 95%
    07:00 +16°C° 0.1 mm 1 mps 736 mmHg 91%
    08:00 +18°C° 0.1 mm 1 mps 736 mmHg 88%
    09:00 +18°C° 0.1 mm 2 mps 736 mmHg 84%
    10:00 +17°C° 0.4 mm 2 mps 736 mmHg 86%
    11:00 +17°C° 0.4 mm 3 mps 736 mmHg 88%
    12:00 +17°C° 0.4 mm 4 mps 736 mmHg 90%
    13:00 +17°C° 0 mm 4 mps 736 mmHg 87%
    14:00 +17°C° 0 mm 3 mps 736 mmHg 83%
    15:00 +17°C° 0 mm 3 mps 736 mmHg 80%
    16:00 +18°C° 0 mm 3 mps 737 mmHg 79%
    17:00 +18°C° 0 mm 3 mps 737 mmHg 79%
    18:00 +18°C° 0 mm 3 mps 737 mmHg 79%
    19:00 +16°C° 0 mm 2 mps 738 mmHg 83%
    20:00 +14°C° 0 mm 2 mps 738 mmHg 88%
    21:00 +12°C° 0 mm 2 mps 738 mmHg 92%
    22:00 +10°C° 0 mm 2 mps 739 mmHg 92%
    23:00 +10°C° 0 mm 1 mps 739 mmHg 92%

    Tomorrow, 21 June, Friday

    Time Temperature Precipitation Wind Pressure Humidity
    00:00 +9°C° 0 mm 1 mps 739 mmHg 92%
    01:00 +9°C° 0 mm 1 mps 739 mmHg 92%
    02:00 +9°C° 0 mm 1 mps 739 mmHg 92%
    03:00 +7°C° 0 mm 0 mps 739 mmHg 91%
    04:00 +9°C° 0 mm 0 mps 740 mmHg 87%
    05:00 +11°C° 0 mm 1 mps 740 mmHg 83%
    06:00 +12°C° 0 mm 1 mps 740 mmHg 79%
    07:00 +14°C° 0 mm 1 mps 741 mmHg 73%
    08:00 +16°C° 0 mm 2 mps 741 mmHg 66%
    09:00 +17°C° 0 mm 2 mps 741 mmHg 60%
    10:00 +18°C° 0 mm 2 mps 741 mmHg 59%
    11:00 +19°C° 0 mm 3 mps 741 mmHg 58%
    12:00 +20°C° 0 mm 3 mps 741 mmHg 56%
    13:00 +20°C° 0 mm 3 mps 741 mmHg 58%
    14:00 +20°C° 0 mm 3 mps 741 mmHg 60%
    15:00 +20°C° 0 mm 3 mps 741 mmHg 62%
    16:00 +19°C° 0 mm 3 mps 741 mmHg 66%
    17:00 +19°C° 0 mm 3 mps 741 mmHg 70%
    18:00 +18°C° 0 mm 3 mps 741 mmHg 74%
    19:00 +16°C° 0 mm 3 mps 741 mmHg 80%
    20:00 +14°C° 0 mm 2 mps 741 mmHg 85%
    21:00 +13°C° 0 mm 2 mps 741 mmHg 91%
    22:00 +12°C° 0 mm 2 mps 741 mmHg 92%
    23:00 +12°C° 0 mm 2 mps 741 mmHg 93%

    Day after tomorrow, 22 June, Saturday

    Time Temperature Precipitation Wind Pressure Humidity
    00:00 +10°C° 0 mm 3 mps 741 mmHg 94%
    01:00 +10°C° 0 mm 3 mps 741 mmHg 93%
    02:00 +10°C° 0 mm 3 mps 741 mmHg 92%
    03:00 +10°C° 0 mm 3 mps 740 mmHg 91%
    04:00 +11°C° 0 mm 3 mps 740 mmHg 88%
    05:00 +12°C° 0 mm 3 mps 740 mmHg 86%
    06:00 +14°C° 0 mm 3 mps 740 mmHg 83%
    07:00 +17°C° 0 mm 3 mps 741 mmHg 77%
    08:00 +19°C° 0 mm 3 mps 741 mmHg 72%
    09:00 +21°C° 0 mm 3 mps 741 mmHg 66%
    10:00 +22°C° 0 mm 3 mps 740 mmHg 63%
    11:00 +24°C° 0 mm 3 mps 740 mmHg 60%
    12:00 +25°C° 0 mm 2 mps 740 mmHg 57%
    13:00 +25°C° 0.1 mm 2 mps 740 mmHg 60%
    14:00 +24°C° 0.1 mm 2 mps 739 mmHg 63%
    15:00 +24°C° 0.1 mm 2 mps 739 mmHg 67%
    16:00 +24°C° 0.2 mm 2 mps 739 mmHg 71%
    17:00 +23°C° 0.2 mm 2 mps 739 mmHg 75%
    18:00 +21°C° 0.2 mm 2 mps 739 mmHg 80%
    19:00 +20°C° 0 mm 2 mps 739 mmHg 83%
    20:00 +18°C° 0 mm 2 mps 739 mmHg 86%
    21:00 +17°C° 0 mm 2 mps 739 mmHg 89%
    22:00 +16°C° 0 mm 2 mps 739 mmHg 91%
    23:00 +16°C° 0 mm 2 mps 739 mmHg 92%

    23 June, Sunday

    Time Temperature Precipitation Wind Pressure Humidity
    00:00 +15°C° 0 mm 2 mps 739 mmHg 93%
    01:00 +15°C° 0 mm 2 mps 739 mmHg 94%
    02:00 +15°C° 0 mm 2 mps 739 mmHg 95%
    03:00 +13°C° 0 mm 3 mps 739 mmHg 95%
    04:00 +14°C° 0 mm 3 mps 740 mmHg 92%
    05:00 +15°C° 0 mm 4 mps 740 mmHg 88%
    06:00 +17°C° 0 mm 4 mps 740 mmHg 84%
    07:00 +19°C° 0 mm 4 mps 740 mmHg 79%
    08:00 +21°C° 0 mm 5 mps 740 mmHg 74%
    09:00 +22°C° 0 mm 5 mps 740 mmHg 68%
    10:00 +23°C° 0 mm 5 mps 740 mmHg 67%
    11:00 +25°C° 0 mm 5 mps 740 mmHg 66%
    12:00 +26°C° 0 mm 5 mps 740 mmHg 64%
    13:00 +26°C° 0 mm 5 mps 740 mmHg 65%
    14:00 +26°C° 0 mm 5 mps 739 mmHg 65%
    15:00 +27°C° 0 mm 4 mps 739 mmHg 66%
    16:00 +26°C° 0 mm 4 mps 739 mmHg 70%
    17:00 +25°C° 0 mm 3 mps 739 mmHg 75%
    18:00 +25°C° 0 mm 3 mps 739 mmHg 79%
    19:00 +22°C° 0 mm 3 mps 739 mmHg 83%
    20:00 +21°C° 0 mm 3 mps 739 mmHg 86%
    21:00 +19°C° 0 mm 3 mps 739 mmHg 90%
    22:00 +19°C° 0 mm 3 mps 739 mmHg 88%
    23:00 +19°C° 0 mm 3 mps 739 mmHg 86%

    24 June, Monday

    Time Temperature Precipitation Wind Pressure Humidity
    00:00 +19°C° 0 mm 4 mps 739 mmHg 84%
    01:00 +19°C° 0 mm 3 mps 739 mmHg 86%
    02:00 +18°C° 0 mm 3 mps 739 mmHg 87%
    03:00 +17°C° 0 mm 3 mps 739 mmHg 89%
    04:00 +18°C° 0 mm 3 mps 739 mmHg 87%
    05:00 +19°C° 0 mm 4 mps 739 mmHg 86%
    06:00 +20°C° 0 mm 4 mps 740 mmHg 84%
    07:00 +21°C° 0 mm 4 mps 740 mmHg 81%
    08:00 +23°C° 0 mm 4 mps 740 mmHg 78%
    09:00 +26°C° 0 mm 3 mps 740 mmHg 75%
    10:00 +27°C° 0 mm 3 mps 740 mmHg 72%
    11:00 +28°C° 0 mm 3 mps 741 mmHg 69%
    12:00 +29°C° 0 mm 3 mps 741 mmHg 65%
    13:00 +29°C° 0 mm 3 mps 740 mmHg 65%
    14:00 +30°C° 0 mm 3 mps 740 mmHg 64%
    15:00 +30°C° 0 mm 3 mps 740 mmHg 64%
    16:00 +29°C° 0 mm 3 mps 740 mmHg 68%
    17:00 +28°C° 0 mm 2 mps 740 mmHg 73%
    18:00 +28°C° 0 mm 2 mps 740 mmHg 77%
    19:00 +26°C° 0 mm 2 mps 740 mmHg 81%
    20:00 +25°C° 0 mm 2 mps 740 mmHg 84%
    21:00 +22°C° 0 mm 3 mps 740 mmHg 88%
    22:00 +22°C° 0 mm 3 mps 740 mmHg 87%
    23:00 +21°C° 0 mm 3 mps 740 mmHg 85%

    25 June, Tuesday

    Time Temperature Precipitation Wind Pressure Humidity
    00:00 +21°C° 0 mm 3 mps 740 mmHg 84%
    01:00 +21°C° 0 mm 4 mps 740 mmHg 85%
    02:00 +20°C° 0 mm 4 mps 740 mmHg 85%
    03:00 +20°C° 0 mm 4 mps 740 mmHg 86%
    04:00 +21°C° 0 mm 4 mps 740 mmHg 84%
    05:00 +21°C° 0 mm 4 mps 740 mmHg 83%
    06:00 +22°C° 0 mm 4 mps 740 mmHg 81%
    07:00 +23°C° 0 mm 5 mps 740 mmHg 77%
    08:00 +26°C° 0 mm 5 mps 740 mmHg 73%
    09:00 +28°C° 0 mm 5 mps 740 mmHg 69%
    10:00 +29°C° 0 mm 5 mps 740 mmHg 66%
    11:00 +30°C° 0 mm 5 mps 741 mmHg 64%
    12:00 +32°C° 0 mm 5 mps 741 mmHg 62%
    13:00 +32°C° 0 mm 4 mps 741 mmHg 62%
    14:00 +33°C° 0 mm 4 mps 741 mmHg 63%
    15:00 +33°C° 0 mm 4 mps 741 mmHg 63%
    16:00 +31°C° 0 mm 3 mps 741 mmHg 68%
    17:00 +31°C° 0 mm 2 mps 741 mmHg 73%
    18:00 +30°C° 0 mm 2 mps 741 mmHg 78%
    19:00 +28°C° 0 mm 2 mps 741 mmHg 81%
    20:00 +26°C° 0 mm 1 mps 741 mmHg 84%
    21:00 +25°C° 0 mm 1 mps 742 mmHg 87%
    22:00 +24°C° 0 mm 1 mps 742 mmHg 87%
    23:00 +23°C° 0 mm 1 mps 742 mmHg 88%
    Show more